Location: Burgerwiesen
(48.6500°N, 15.6167°E)
Time: 18:54:41
(UTC+00:00)

Cosmos 2058 Rocket - Pass Details

Date: 09 April 2020
Orbit: 609 x 640 km, 82.5° (Epoch: 24 May)

Event Time Altitude Azimuth Distance (km) Brightness Sun altitude
Rises 18:53:08 0° 187° (S) 2,933 6.3 -12.0°
Reaches altitude 10° 18:55:22 10° 187° (S) 2,028 5.5 -12.4°
Maximum altitude 18:59:53 86° 97° (E) 648 3.1 -13.0°
Drops below altitude 10° 19:04:25 10° 10° (N) 2,037 6.0 -13.7°
Sets 19:06:40 0° 11° (N) 2,947 6.8 -14.0°
